| time (UTC) | temp F | wind direction | speed MPH | gust MPH | rain 1hr in | rain 24hr in | rain mn in | humidity % | barometer mb |
| 20260902190030 | 65 | 200 | 3.0 | 5.0 | 0.00 | 0.01 | 0.00 | 68 | 1005.3 |
| 20260902184530 | 66 | 192 | 3.0 | 5.0 | 0.00 | 0.01 | 0.00 | 65 | 1005.2 |
| 20260902183032 | 67 | 215 | 2.0 | 5.0 | 0.00 | 0.01 | 0.00 | 64 | 1005.1 |
| 20260902181544 | 66 | 203 | 0.0 | 4.0 | 0.00 | 0.01 | 0.00 | 65 | 1005.2 |
| 20260902180107 | 66 | 216 | 1.0 | 4.0 | 0.00 | 0.01 | 0.00 | 64 | 1005.3 |
| 20260902174530 | 69 | 261 | 2.0 | 6.0 | 0.00 | 0.01 | 0.00 | 62 | 1005.3 |
| 20260902173032 | 69 | 265 | 3.0 | 8.0 | 0.00 | 0.01 | 0.00 | 63 | 1005.3 |
| 20260902171529 | 68 | 260 | 4.0 | 9.0 | 0.00 | 0.01 | 0.00 | 61 | 1005.5 |
| 20260902170030 | 69 | 278 | 2.0 | 6.0 | 0.00 | 0.01 | 0.00 | 63 | 1005.6 |
| 20260902164529 | 67 | 262 | 1.0 | 4.0 | 0.00 | 0.01 | 0.00 | 68 | 1005.9 |
| 20260902163030 | 62 | 351 | 1.0 | 3.0 | 0.00 | 0.01 | 0.00 | 72 | 1006.2 |
| 20260902161531 | 62 | 286 | 0.0 | 2.0 | 0.00 | 0.01 | 0.00 | 71 | 1006.4 |
| 20260902160029 | 63 | 275 | 0.0 | 3.0 | 0.00 | 0.01 | 0.00 | 71 | 1006.6 |
| 20260902154529 | 62 | 38 | 2.0 | 6.0 | 0.00 | 0.01 | 0.00 | 74 | 1006.7 |
| 20260902153109 | 61 | 21 | 3.0 | 6.0 | 0.00 | 0.01 | 0.00 | 78 | 1006.8 |
| 20260902150029 | 58 | 32 | 5.0 | 11.0 | 0.00 | 0.01 | 0.00 | 80 | 1007.1 |
| 20260902144608 | 57 | 16 | 6.0 | 11.0 | 0.00 | 0.01 | 0.00 | 82 | 1007.1 |
| 20260902141606 | 56 | 335 | 4.0 | 8.0 | 0.00 | 0.01 | 0.00 | 82 | 1007.4 |
| 20260902140031 | 55 | 341 | 4.0 | 7.0 | 0.00 | 0.01 | 0.00 | 82 | 1007.4 |
| 20260902134530 | 55 | 15 | 3.0 | 9.0 | 0.00 | 0.01 | 0.00 | 82 | 1007.4 |
| 20260902133034 | 54 | 68 | 2.0 | 4.0 | 0.00 | 0.01 | 0.00 | 82 | 1007.6 |
| 20260902131534 | 54 | 56 | 3.0 | 7.0 | 0.00 | 0.01 | 0.00 | 83 | 1007.6 |
| 20260902130028 | 54 | 47 | 2.0 | 6.0 | 0.00 | 0.01 | 0.00 | 83 | 1007.5 |
| 20260902124532 | 54 | 56 | 1.0 | 3.0 | 0.00 | 0.01 | 0.00 | 82 | 1007.5 |
| 20260902123109 | 54 | 110 | 1.0 | 3.0 | 0.00 | 0.01 | 0.00 | 82 | 1007.7 |
| 20260902120106 | 55 | 298 | 1.0 | 9.0 | 0.00 | 0.01 | 0.00 | 80 | 1007.7 |
| 20260902114530 | 56 | 255 | 4.0 | 11.0 | 0.00 | 0.01 | 0.00 | 80 | 1007.8 |
| 20260902113034 | 56 | 250 | 7.0 | 14.0 | 0.00 | 0.01 | 0.00 | 80 | 1007.7 |
| 20260902111531 | 56 | 249 | 7.0 | 12.0 | 0.00 | 0.01 | 0.00 | 81 | 1007.7 |
| 20260902110031 | 57 | 256 | 7.0 | 13.0 | 0.00 | 0.01 | 0.00 | 81 | 1007.7 |
| 20260902104531 | 57 | 259 | 8.0 | 16.0 | 0.00 | 0.01 | 0.00 | 82 | 1007.8 |
| 20260902103033 | 57 | 254 | 7.0 | 15.0 | 0.00 | 0.01 | 0.00 | 82 | 1008.0 |
| 20260902101531 | 57 | 259 | 6.0 | 15.0 | 0.00 | 0.01 | 0.00 | 82 | 1008.1 |
| 20260902094535 | 57 | 251 | 6.0 | 11.0 | 0.00 | 0.01 | 0.00 | 82 | 1008.2 |
| 20260902093038 | 56 | 252 | 6.0 | 14.0 | 0.00 | 0.01 | 0.00 | 83 | 1008.3 |
| 20260902091531 | 56 | 246 | 6.0 | 11.0 | 0.00 | 0.01 | 0.00 | 83 | 1008.4 |
| 20260902090031 | 56 | 245 | 5.0 | 11.0 | 0.00 | 0.01 | 0.00 | 83 | 1008.3 |
| 20260902084531 | 56 | 236 | 5.0 | 7.0 | 0.00 | 0.01 | 0.00 | 82 | 1008.3 |
| 20260902081531 | 57 | 250 | 6.0 | 11.0 | 0.00 | 0.01 | 0.00 | 81 | 1008.3 |
| 20260902074530 | 57 | 244 | 6.0 | 11.0 | 0.00 | 0.01 | 0.00 | 79 | 1008.5 |
| 20260902071531 | 59 | 239 | 9.0 | 14.0 | 0.00 | 0.01 | 0.00 | 75 | 1008.6 |
| 20260902070039 | 60 | 237 | 10.0 | 17.0 | 0.00 | 0.01 | 0.00 | 75 | 1008.9 |
| 20260902063030 | 60 | 238 | 10.0 | 18.0 | 0.00 | 0.01 | 0.01 | 73 | 1009.0 |
| 20260902061535 | 61 | 237 | 11.0 | 16.0 | 0.00 | 0.01 | 0.01 | 73 | 1009.1 |
| 20260902060031 | 61 | 245 | 12.0 | 23.0 | 0.00 | 0.01 | 0.01 | 72 | 1009.0 |
| 20260902054529 | 61 | 247 | 11.0 | 23.0 | 0.00 | 0.01 | 0.01 | 72 | 1008.9 |
| 20260902053030 | 61 | 246 | 10.0 | 17.0 | 0.00 | 0.01 | 0.01 | 72 | 1009.1 |
| 20260902050029 | 61 | 237 | 10.0 | 16.0 | 0.00 | 0.01 | 0.01 | 70 | 1008.7 |
| 20260902044606 | 62 | 242 | 10.0 | 20.0 | 0.00 | 0.01 | 0.01 | 70 | 1008.5 |
| 20260902041530 | 62 | 251 | 11.0 | 20.0 | 0.00 | 0.01 | 0.01 | 69 | 1008.3 |
| 20260902040033 | 62 | 256 | 10.0 | 18.0 | 0.00 | 0.01 | 0.01 | 70 | 1008.1 |
| 20260902034646 | 61 | 253 | 9.0 | 15.0 | 0.00 | 0.01 | 0.01 | 71 | 1008.0 |
| 20260902033029 | 61 | 252 | 7.0 | 13.0 | 0.00 | 0.01 | 0.01 | 71 | 1007.9 |
| 20260902031531 | 62 | 254 | 6.0 | 13.0 | 0.00 | 0.01 | 0.01 | 71 | 1007.9 |
| 20260902030148 | 62 | 242 | 8.0 | 13.0 | 0.00 | 0.01 | 0.01 | 70 | 1008.0 |
| 20260902024531 | 62 | 232 | 9.0 | 14.0 | 0.00 | 0.01 | 0.01 | 68 | 1007.9 |
| 20260902023030 | 62 | 244 | 11.0 | 22.0 | 0.00 | 0.01 | 0.01 | 67 | 1007.6 |
| 20260902021532 | 63 | 243 | 11.0 | 21.0 | 0.00 | 0.01 | 0.01 | 66 | 1007.5 |
| 20260902020030 | 64 | 250 | 11.0 | 21.0 | 0.00 | 0.01 | 0.01 | 64 | 1007.5 |
| 20260902013033 | 66 | 243 | 13.0 | 20.0 | 0.00 | 0.01 | 0.01 | 60 | 1007.3 |
| 20260902011530 | 68 | 249 | 12.0 | 22.0 | 0.00 | 0.01 | 0.01 | 59 | 1007.2 |
| 20260902010029 | 68 | 262 | 11.0 | 24.0 | 0.00 | 0.01 | 0.01 | 59 | 1007.1 |
| 20260902004533 | 68 | 260 | 12.0 | 22.0 | 0.00 | 0.01 | 0.01 | 60 | 1007.1 |
| 20260902003029 | 66 | 252 | 13.0 | 25.0 | 0.00 | 0.01 | 0.01 | 61 | 1007.0 |
| 20260902001533 | 67 | 253 | 13.0 | 24.0 | 0.00 | 0.01 | 0.01 | 61 | 1006.8 |
| 20260902000032 | 66 | 254 | 12.0 | 26.0 | 0.00 | 0.01 | 0.01 | 62 | 1007.1 |
| 20260901234606 | 67 | 250 | 15.0 | 33.0 | 0.00 | 0.01 | 0.01 | 61 | 1007.1 |
| 20260901233032 | 68 | 251 | 14.0 | 23.0 | 0.00 | 0.01 | 0.01 | 60 | 1007.1 |
| 20260901231532 | 68 | 259 | 15.0 | 20.0 | 0.00 | 0.01 | 0.01 | 60 | 1007.0 |
| 20260901230030 | 70 | 259 | 16.0 | 31.0 | 0.00 | 0.01 | 0.01 | 56 | 1007.0 |
| 20260901224533 | 72 | 254 | 17.0 | 30.0 | 0.00 | 0.01 | 0.01 | 55 | 1006.8 |
| 20260901223030 | 73 | 266 | 16.0 | 31.0 | 0.00 | 0.01 | 0.01 | 55 | 1006.5 |
| 20260901220030 | 72 | 273 | 13.0 | 24.0 | 0.00 | 0.01 | 0.01 | 56 | 1006.6 |
| 20260901213030 | 72 | 261 | 13.0 | 27.0 | 0.01 | 0.01 | 0.01 | 56 | 1006.6 |
| 20260901211531 | 71 | 263 | 13.0 | 27.0 | 0.01 | 0.01 | 0.01 | 56 | 1006.7 |
| 20260901210105 | 72 | 260 | 17.0 | 26.0 | 0.01 | 0.01 | 0.00 | 55 | 1006.6 |
| 20260901204608 | 73 | 253 | 12.0 | 25.0 | 0.00 | 0.00 | 0.00 | 54 | 1006.9 |
| 20260901201529 | 73 | 263 | 11.0 | 21.0 | 0.00 | 0.00 | 0.00 | 55 | 1007.0 |
| 20260901200033 | 72 | 258 | 12.0 | 23.0 | 0.00 | 0.00 | 0.00 | 56 | 1007.1 |
| 20260901194604 | 72 | 260 | 13.0 | 23.0 | 0.00 | 0.00 | 0.00 | 56 | 1007.4 |
| 20260901193030 | 72 | 254 | 11.0 | 20.0 | 0.00 | 0.00 | 0.00 | 57 | 1007.6 |